CW4299 Treasure Island FL US current weather conditions

sailwx.info

Wind from 356 at 1 knots gusting 5

Air temperature 10.6° C
Dewpoint 8.0° C

Last reported at 2018-Dec-12 02:01 UTC.
Time now 2018-Dec-12 02:42 UTC

Location: N 27°46' W 082°46'.
View on Google Maps.

See reports from other nearby stations

  
Tides and Currents Weather Stations Pressure Air Temp Water Temp Dewpoint Dewpoint Depression Visibility Wind Speed Wind Dir Waves Ship Positions
date/time (UTC)wind fromknots sea level pressurealtimeterstation pressurevisibilityair tempwater tempwave heightnotes
2018-Dec-12 02:01 356 1 gusting 5 10.6
2018-Dec-12 01:46 353 0 gusting 6 10.6
2018-Dec-12 01:32 006 2 gusting 4 10.6
2018-Dec-12 01:16 323 2 gusting 5 10.0
2018-Dec-12 01:01 352 2 gusting 6 10.0
2018-Dec-12 00:46 023 3 gusting 6 10.6
2018-Dec-12 00:31 352 1 gusting 4 10.6
2018-Dec-12 00:16 324 1 gusting 6 10.6
2018-Dec-12 00:01 330 3 gusting 6 10.6
2018-Dec-11 23:45 329 3 gusting 7 10.6
2018-Dec-11 23:31 343 3 gusting 8 10.6
2018-Dec-11 23:17 336 2 gusting 6 10.6
2018-Dec-11 23:01 025 4 gusting 7 11.1
2018-Dec-11 22:46 351 3 gusting 6 11.1
2018-Dec-11 22:31 335 5 gusting 9 11.1
2018-Dec-11 22:16 341 2 gusting 7 11.7
2018-Dec-11 22:01 337 2 gusting 8 11.7
2018-Dec-11 21:46 345 3 gusting 8 11.7
2018-Dec-11 21:31 323 4 gusting 10 11.7
2018-Dec-11 21:16 331 5 gusting 10 12.2
2018-Dec-11 21:01 342 5 gusting 8 12.2
2018-Dec-11 20:46 330 6 gusting 9 12.2
2018-Dec-11 20:31 327 6 gusting 11 12.2
2018-Dec-11 20:16 328 5 gusting 12 12.8
2018-Dec-11 20:01 347 5 gusting 10 12.8
2018-Dec-11 19:46 321 6 gusting 15 12.2
2018-Dec-11 19:31 309 6 gusting 15 12.8
2018-Dec-11 19:16 002 8 gusting 13 12.8
2018-Dec-11 19:01 325 8 gusting 13 12.8
2018-Dec-11 18:45 031 5 gusting 11 12.8
2018-Dec-11 18:31 015 6 gusting 14 12.8
2018-Dec-11 18:16 330 8 gusting 13 12.8
2018-Dec-11 18:00 350 7 gusting 12 12.8
2018-Dec-11 17:45 328 7 gusting 13 12.2
2018-Dec-11 17:30 333 6 gusting 13 12.8
2018-Dec-11 17:15 321 7 gusting 15 12.2
2018-Dec-11 17:00 301 8 gusting 13 12.2
2018-Dec-11 16:46 014 6 gusting 12 12.2
2018-Dec-11 16:30 032 4 gusting 10 11.7
2018-Dec-11 16:15 356 6 gusting 11 11.7
2018-Dec-11 16:00 030 6 gusting 12 11.7
2018-Dec-11 15:45 297 5 gusting 10 11.1
2018-Dec-11 15:30 028 6 gusting 12 11.1
2018-Dec-11 15:15 006 4 gusting 10 11.1
2018-Dec-11 15:00 025 6 gusting 11 11.7
2018-Dec-11 14:45 013 4 gusting 11 12.2
2018-Dec-11 14:30 021 6 gusting 13 11.7
2018-Dec-11 14:15 325 5 gusting 11 12.2
2018-Dec-11 14:00 018 7 gusting 15 12.2
2018-Dec-11 13:45 323 5 gusting 12 12.2
2018-Dec-11 13:30 343 6 gusting 14 12.2
2018-Dec-11 13:15 018 5 gusting 10 12.2
2018-Dec-11 13:00 331 6 gusting 16 12.2
2018-Dec-11 12:46 328 6 gusting 13 11.7
2018-Dec-11 12:32 310 8 gusting 13 11.7
2018-Dec-11 12:16 032 6 gusting 12 11.7
2018-Dec-11 12:01 326 6 gusting 13 11.7
2018-Dec-11 11:46 338 7 gusting 12 11.7
2018-Dec-11 11:31 328 6 gusting 13 11.7
2018-Dec-11 11:16 339 5 gusting 12 11.7
2018-Dec-11 11:02 033 3 gusting 5 10.0
2018-Dec-11 10:46 315 2 gusting 4 9.4
2018-Dec-11 10:31 008 2 gusting 4 9.4
2018-Dec-11 10:16 011 1 gusting 4 9.4
2018-Dec-11 10:01 028 1 gusting 4 9.4
2018-Dec-11 09:46 060 0 gusting 6 10.0
2018-Dec-11 09:30 297 1 gusting 6 9.4
2018-Dec-11 09:16 334 2 gusting 6 10.0
2018-Dec-11 09:00 041 0 gusting 4 10.0
2018-Dec-11 08:45 006 0 gusting 6 10.0
2018-Dec-11 08:30 029 3 gusting 6 10.6
2018-Dec-11 08:16 355 1 gusting 6 10.6
2018-Dec-11 08:00 039 2 gusting 6 11.1
2018-Dec-11 07:45 018 0 gusting 5 11.1
2018-Dec-11 07:30 006 1 gusting 4 11.1
2018-Dec-11 07:15 001 0 gusting 5 11.1
2018-Dec-11 07:00 063 0 gusting 3 11.1
2018-Dec-11 06:45 010 0 gusting 2 11.1
2018-Dec-11 06:30 089 11.1
2018-Dec-11 06:15 016 0 gusting 4 11.1
2018-Dec-11 06:00 346 11.1
2018-Dec-11 05:45 061 0 gusting 4 11.1
2018-Dec-11 05:30 346 1 gusting 3 11.1
2018-Dec-11 05:15 038 1 gusting 4 11.1
2018-Dec-11 05:00 068 0 gusting 6 11.1
2018-Dec-11 04:45 156 1 gusting 5 11.1
2018-Dec-11 04:30 354 1 gusting 7 11.1
2018-Dec-11 04:16 095 0 gusting 5 11.1
2018-Dec-11 04:15 108 0 gusting 5 11.1
2018-Dec-11 04:01 084 1 gusting 4 11.1
2018-Dec-11 03:48 122 1 gusting 3 11.1
2018-Dec-11 03:32 085 1 gusting 5 11.1
2018-Dec-11 03:17 088 0 gusting 4 11.1
2018-Dec-11 03:04 059 1 gusting 4 11.1
2018-Dec-11 02:47 023 1 gusting 3 11.7
2018-Dec-11 02:32 335 0 gusting 3 11.7
2018-Dec-11 02:16 025 0 gusting 4 11.7
2018-Dec-11 02:01 041 1 gusting 5 11.7
2018-Dec-11 01:47 108 2 gusting 6 11.7
2018-Dec-11 01:31 357 3 gusting 6 11.7
2018-Dec-11 01:16 042 3 gusting 6 11.7
2018-Dec-11 01:01 353 4 gusting 7 11.7
2018-Dec-11 00:46 342 3 gusting 8 11.7
2018-Dec-11 00:31 345 4 gusting 9 12.2
2018-Dec-11 00:16 024 4 gusting 7 12.2
2018-Dec-11 00:01 002 6 gusting 9 12.2
2018-Dec-10 23:45 349 3 gusting 10 12.2
2018-Dec-10 23:31 323 2 gusting 7 12.2
2018-Dec-10 23:16 320 4 gusting 11 12.2
2018-Dec-10 23:00 025 7 gusting 10 12.8
2018-Dec-10 22:46 357 6 gusting 12 12.8
2018-Dec-10 22:30 345 6 gusting 10 13.3
2018-Dec-10 22:16 322 6 gusting 10 13.3
2018-Dec-10 22:00 006 6 gusting 11 13.3
2018-Dec-10 21:45 316 5 gusting 12 13.3
2018-Dec-10 21:30 346 6 gusting 14 13.9
2018-Dec-10 21:15 279 5 gusting 13 13.9
2018-Dec-10 21:00 013 7 gusting 13 13.9
2018-Dec-10 20:45 004 6 gusting 12 13.9
2018-Dec-10 20:30 001 7 gusting 16 13.9
2018-Dec-10 20:15 316 7 gusting 12 13.9
2018-Dec-10 20:00 337 7 gusting 13 13.9
2018-Dec-10 19:45 329 7 gusting 13 14.4
2018-Dec-10 19:30 290 6 gusting 17 14.4
2018-Dec-10 19:16 335 6 gusting 17 14.4
2018-Dec-10 19:01 321 7 gusting 15 15.0
2018-Dec-10 18:46 316 9 gusting 14 14.4
2018-Dec-10 18:33 297 8 gusting 16 14.4
2018-Dec-10 18:16 309 6 gusting 15 15.0
2018-Dec-10 18:02 283 5 gusting 19 15.0
2018-Dec-10 17:46 328 7 gusting 13 15.0
2018-Dec-10 17:31 338 10 gusting 18 15.0
2018-Dec-10 17:16 305 9 gusting 16 15.0
2018-Dec-10 17:01 342 8 gusting 14 15.0
2018-Dec-10 16:46 356 7 gusting 17 15.0
2018-Dec-10 16:31 309 6 gusting 15 15.0
2018-Dec-10 16:16 332 7 gusting 17 15.0
2018-Dec-10 16:02 332 6 gusting 13 15.6
2018-Dec-10 15:46 304 7 gusting 14 15.6
2018-Dec-10 15:31 332 6 gusting 14 15.0
2018-Dec-10 15:15 011 6 gusting 13 15.6
2018-Dec-10 15:01 321 6 gusting 14 15.0
2018-Dec-10 14:46 345 8 gusting 13 15.6
2018-Dec-10 14:30 326 6 gusting 14 15.0
2018-Dec-10 14:16 352 7 gusting 12 15.0
2018-Dec-10 14:01 348 6 gusting 12 15.0
2018-Dec-10 13:45 354 6 gusting 12 15.0
2018-Dec-10 13:30 346 5 gusting 8 15.0
2018-Dec-10 13:15 332 6 gusting 13 15.0
2018-Dec-10 13:00 323 6 gusting 13 15.0
2018-Dec-10 12:45 322 7 gusting 12 15.0
2018-Dec-10 12:30 343 4 gusting 10 15.0
2018-Dec-10 12:15 333 6 gusting 10 15.0
2018-Dec-10 12:00 335 6 gusting 11 15.0
2018-Dec-10 11:45 315 4 gusting 11 15.0
2018-Dec-10 11:30 335 3 gusting 13 15.0
2018-Dec-10 11:15 319 5 gusting 11 15.0
2018-Dec-10 11:01 323 6 gusting 12 15.0
2018-Dec-10 10:46 332 6 gusting 11 15.0
2018-Dec-10 10:31 308 6 gusting 12 15.0
2018-Dec-10 10:16 300 6 gusting 14 15.6
2018-Dec-10 10:01 332 5 gusting 11 15.6
2018-Dec-10 09:46 007 5 gusting 12 15.0
2018-Dec-10 09:31 342 6 gusting 13 15.6
2018-Dec-10 09:16 007 7 gusting 14 15.6
2018-Dec-10 09:00 311 5 gusting 11 15.0
2018-Dec-10 08:46 343 5 gusting 13 15.0
2018-Dec-10 08:31 271 4 gusting 13 15.0
2018-Dec-10 08:16 345 5 gusting 10 15.0
2018-Dec-10 08:00 330 5 gusting 13 15.6
2018-Dec-10 07:46 285 6 gusting 12 16.1
2018-Dec-10 07:30 342 6 gusting 13 16.1
2018-Dec-10 07:16 355 8 gusting 16 17.2
2018-Dec-10 07:01 283 8 gusting 18 17.2
2018-Dec-10 06:45 299 8 gusting 13 17.2
2018-Dec-10 06:30 270 5 gusting 12 17.2
2018-Dec-10 04:46 347 4 gusting 13 18.9
2018-Dec-10 04:31 293 5 gusting 11 18.9
2018-Dec-10 04:15 270 5 gusting 12 18.9
2018-Dec-10 04:01 296 3 gusting 13 18.9
2018-Dec-10 03:46 327 5 gusting 13 18.9
2018-Dec-10 03:30 314 6 gusting 13 18.9
2018-Dec-10 03:16 271 6 gusting 13 18.9
2018-Dec-10 03:01 266 5 gusting 12 18.9
2018-Dec-10 02:46 308 4 gusting 13 18.9
2018-Dec-10 02:31 319 6 gusting 13 19.4
2018-Dec-10 02:16 288 6 gusting 11 18.9
2018-Dec-10 02:01 303 6 gusting 11 19.4